Portada
METAR-TAF:

METAR-TAF

Aeropuertos :

Chichén Itzá, México

Aeropuerto Internacional de Kaua

latitud: 20-38-30N, longitud: 088-26-58W, altitud: 31 m

Observación

El informe se hizo hace 17 horas y 19 minutos, a las 20:48 UTC
Viento 8 kt del este
Temperatura 33°C
Humedad 23%
Presión 1016 hPa
Visibilidad: 12.9 km
Nubes dispersas a una altura de 4000 ft

METAR: MMCT 222048Z 09008KT 8SM SCT040 33/09 A3000 RMK 8/500 MSGTX MMMD

Hora: 08:07 (14:07 UTC)


TAF: falta

Observaciones y pronósticos meteorológicos de más de 4000 aeropuertos (mensajes METAR y TAF).

Los puntos amarillos y rojos representan las estaciones disponibles.

Ponga el ratón en el punto deseado para ver el nombre de la estación.

Haga clic para ver las observaciones y los pronósticos meteorológicos.

Para cambiar el mapa : haga clic en los botones verdes con una cruz de color negro para hacer un zoom, en el botón verde con un guión para alejar o en las flechas verdes para mapas adyacentes.


METAR-TAF: